Regional Weather Roundup
Issued by NWS

Home | Current Version | Previous Version | Graphics & Text | Print | Product List | Glossary Off
Versions: 1 2 3 4 5 6 7 8 9 10 11 12 13 14 15 16 17 18 19 20 21 22 23 24 25 26 27 28 29 30 31 32 33 34 35 36 37 38 39 40 41 42 43 44 45 46 47 48 49 50

000
ASUS43 KMKX 242125
RWRWI

WISCONSIN REGIONAL WEATHER ROUNDUP
NATIONAL WEATHER SERVICE MILWAUKEE/SULLIVAN WI
400 PM CDT FRI OCT 24 2014

NOTE: "FAIR" INDICATES FEW OR NO CLOUDS BELOW 12,000 FEET WITH NO
SIGNIFICANT WEATHER AND/OR OBSTRUCTIONS TO VISIBILITY.

WIZ001-002-006>008-014>016-023>028-242200-
NORTHWEST WISCONSIN

CITY           SKY/WX    TMP DP  RH WIND       PRES   REMARKS
SUPERIOR ARPT  SUNNY     71  53  53 SW10      29.75F
ASHLAND        SUNNY     68  50  52 S14       29.77F
HAYWARD        CLOUDY    60  51  72 S14       29.83R
SIREN          PTSUNNY   62  52  69 S8        29.83R
CUMBERLAND     CLOUDY    57  52  82 SW7       29.85R
RICE LAKE      CLOUDY    59  51  74 S8        29.86S
CHETEK         CLOUDY    58  52  79 S7        29.85S
LADYSMITH      CLOUDY    59  50  72 S8        29.87R
EAU CLAIRE     CLOUDY    59  52  77 S9        29.85S
MENOMONIE      CLOUDY    58  56  91 S8        29.86R FOG
NEW RICHMOND   CLOUDY    59  55  89 S7        29.85R
OSCEOLA        CLOUDY    61  57  85 S6        29.87R
$$

WIZ003>005-009-010-017-018-242200-
NORTH CENTRAL WISCONSIN

CITY           SKY/WX    TMP DP  RH WIND       PRES   REMARKS
MANITOWISH WTR MOSUNNY   60  49  67 S8        29.83S
ARBOR VITAE    SUNNY     62  49  63 S9        29.85S
WOODRUFF       SUNNY     62  49  63 S9        29.85S
RHINELANDER    MOSUNNY   59  44  57 S9        29.87F
EAGLE RIVER    PTSUNNY   60  41  48 SW8       29.85S
LAND O LAKES   MOSUNNY   64  44  47 S8        29.85S
PHILLIPS       CLOUDY    61  47  60 SW8       29.84R
TOMAHAWK       MOSUNNY   58  46  63 S3        29.87S
MEDFORD        CLOUDY    56  49  77 S7        29.87R
MERRILL        MOSUNNY   57  49  73 S5        29.87S
$$

WIZ029-030-035-036-043>047-242200-
CENTRAL WISCONSIN

CITY           SKY/WX    TMP DP  RH WIND       PRES   REMARKS
WAUSAU         MOSUNNY   58  48  69 S6        29.87F
MOSINEE        MOSUNNY   55  54  94 S8        29.89F
MARSHFIELD     PTSUNNY   57  50  77 S9        29.87F
STEVENS POINT  PTSUNNY   57  49  74 S7        29.90S
WAUPACA        MOSUNNY   58  51  76 S6        29.91F
WAUTOMA        CLOUDY    58  51  77 SE7       29.91F
WISC RAPIDS    CLOUDY    60  50  69 S7        29.90F
CAMP DOUGLAS   PTSUNNY   63  55  76 S9        29.88F
$$

WIZ011>013-019>022-031-037>040-048>050-242200-
NORTHEAST WISCONSIN

CITY           SKY/WX    TMP DP  RH WIND       PRES   REMARKS
ANTIGO         MOSUNNY   56  49  77 S7        29.89F
SHAWANO        SUNNY     56  49  78 S3        29.91F
OCONTO         MOSUNNY   55  49  80 SW8       29.91F
STURGEON BAY   MOSUNNY   54  48  82 SW3       29.92S
GREEN BAY      PTSUNNY   53  49  86 VRB7      29.92F
MANITOWOC      SUNNY     55  50  83 S9        29.93F
APPLETON       PTSUNNY   52  50  93 S9        29.93F
CLINTONVILLE   PTSUNNY   54  50  87 S8        29.90F
OSHKOSH        SUNNY     57  51  80 S10       29.92F
$$

WIZ032>034-041-042-053>061-242200-
SOUTHWEST WISCONSIN

CITY           SKY/WX    TMP DP  RH WIND       PRES   REMARKS
LA CROSSE      CLOUDY    62  56  80 S9        29.87R
SPARTA         CLOUDY    63  50  62 S6        29.88S
VIROQUA        CLOUDY    61  53  74 SW9       29.89S
BOSCOBEL       CLOUDY    64  54  69 S7        29.90S
PRAIRIE DU CHI CLOUDY    62  54  76 SW10G16   29.90R
PLATTEVILLE    MOSUNNY   61  55  80 S12       29.91F
$$

WIZ056-057-062-063-064-067-068-242200-
SOUTH CENTRAL WISCONSIN

CITY           SKY/WX    TMP DP  RH WIND       PRES   REMARKS
REEDSBURG      CLOUDY    61  52  71 S8        29.90S
BARABOO/DELLS  CLOUDY    61  49  66 S9        29.91S
LONE ROCK      PTSUNNY   67  50  54 S9        29.90F
MINERAL POINT  SUNNY     63  52  67 S10       29.91F
MADISON        PTSUNNY   61  51  70 S9        29.93F
MIDDLETON      MOSUNNY   63  49  61 S9        29.93F
WATERTOWN      SUNNY     57  51  81 S8        29.94F
MONROE         PTSUNNY   61  50  67 S12       29.94F
JANESVILLE     PTSUNNY   61  52  72 SW8       29.95F
$$

WIZ051-052-058>065-066-070>072-242200-
SOUTHEAST WISCONSIN

CITY           SKY/WX    TMP DP  RH WIND       PRES   REMARKS
MILWAUKEE      PTSUNNY   61  51  70 SW7       29.95F
WAUKESHA       SUNNY     59  50  72 SW7       29.96F
MILWAUKEE/TIMM SUNNY     63  48  59 S6        29.95F
RACINE         MOSUNNY   61  51  70 SW9       29.97F
BURLINGTON     SUNNY     60  50  69 S3        29.95F
KENOSHA        SUNNY     63  52  67 SW5       29.97S
FOND DU LAC    SUNNY     57  50  77 S7        29.93F
SHEBOYGAN      SUNNY     63  49  60 W8        29.93F
WEST BEND      SUNNY     61  46  59 SW5       29.94F
JUNEAU         SUNNY     56  50  79 S7        29.95S
$$

LSZ147-162-242200-
LAKE SUPERIOR

STATION/POSITION TIME  TEMP    WIND        PRES    WAVE
                       AIR SEA DIR/SP/G            HT/PER
                 (UTC) (F)     (DEG/KT/KT) (MB)    (FT/S)
W MID LAKE BUOY  2050   49 47  140/  2/  2 1007.6F   1
DEVILS ISLAND    2100   51      50/  5/  5 1007.9F
PORT WING        2000   54      20/  5/  8 1007.8F
SAXON HARBOR     2000   71     200/ 10/ 20 1008.1F
$$

LMZ867-665-643>646-242200-
LAKE MICHIGAN

STATION/POSITION TIME  TEMP    WIND        PRES    WAVE
                       AIR SEA DIR/SP/G            HT/PER
                 (UTC) (F)     (DEG/KT/KT) (MB)    (FT/S)
CHAMBERS ISLAND  2000   49     210/  7/ 11 1013.2F
N MID LAKE BUOY  2050   49 51  210/ 16/ 19 1013.1F   2/ 3
NORTHPORT PIER   2000   53     180/  6/ 10 1013.2F
SISTER BAY       2012          240/  9/ 11   N/A
ALGOMA LAKESHORE 1856          220/ 12/ 14   N/A
KEWAUNEE LAKESHO 2100   50     170/ 12/ 15 1012.5F
SHEBOYGAN LAKESH 2100   50 51  170/ 13/ 15 1014.0F
PORT WASHINGTON  2000   55     190/  5/  8 1015.2S
ATWATER BUOY     2100   53     150/ 10/ 12 1014.9F
MILWAUKEE LAKESH 2100   53     140/ 10/ 12   N/A
S MID LAKE BUOY  2050   52 54  200/  6/  8 1015.3F   1
KENOSHA   LAKESH 2100   55     150/  8/  9 1014.6F
$$

TC  - TEMPERATURE IN CELSIUS
VSB - VISIBILITY IN STATUTE MILES
WCI - WIND CHILL INDEX
HX  - HEAT INDEX




USA.gov is the U.S. government's official web portal to all federal, state and local government web resources and services.